sat.trackr.live / text

‹ back to catalog

STARLINK-6116

NORAD 56911 · 2023-083AM

PAYLOAD ACTIVE UNKNOWN

§ Identity

Operator
Country
US
Launch date
2023-06-12
Launch site
AFETR
Launch vehicle
Mass (kg)
RCS (m²)

Purposes: comms

External: N2YO · Heavens-Above · Gunter

§ Orbital elements

Epoch: 2026-05-25T00:24:26.918208Z

Period
94.27 min
Inclination
43.0017°
Eccentricity
0.0001111
Mean motion
15.27576428 rev/d
Perigee alt
482.3 km
Apogee alt
483.8 km
Semi-major
6,861.2 km
B*
1.1267e-5
RAAN
359.4355°
Arg perigee
245.6462°
Mean anomaly
114.4274°
Rev number
16,347

§ Raw data

STARLINK-61161 56911U 23083AM  26145.01697822  .00000048  00000+0  11267-4 0  99932 56911  43.0017 359.4355 0001111 245.6462 114.4274 15.27576428163477

JSON: /api/v1/satellites/56911 · /tle

For live sub-satellite position, see the globe view (requires WebGL).

§ Visibility from observer

Set your observer location to see the next 7 days of passes ≥ 10°. The values pass through the URL so the page stays shareable.

No JS? Fill the form by hand. The geolocation button needs JavaScript.